When you browse on this site, cookies collect data to enhance your experience and personalize the content and advertising you see.
Visit our Privacy Policy to learn more. By continuing to use the site, you agree to this use of cookies and data.
  • En España
  • Lista de países
  • Para 7 días
  • Temperatura del agua
  • El tiempo en el mapa
  • Informadores
  • user-avatar
    Iniciar sesión

    Tiempo cada hora Kvandzhu

    Hoy, 1 Junio, Lunes

    Tiempo Temperatura Precipitaciones Viento Presión Humedad
    00:00 +17°C° 0 mm 0 mps 754 mmHg 94%
    01:00 +17°C° 0 mm 0 mps 754 mmHg 94%
    02:00 +17°C° 0 mm 0 mps 753 mmHg 95%
    03:00 +17°C° 0 mm 0 mps 753 mmHg 95%
    04:00 +17°C° 0 mm 0 mps 754 mmHg 96%
    05:00 +19°C° 0 mm 1 mps 754 mmHg 96%
    06:00 +20°C° 0 mm 1 mps 754 mmHg 91%
    07:00 +21°C° 0 mm 1 mps 754 mmHg 86%
    08:00 +23°C° 0 mm 1 mps 754 mmHg 81%
    09:00 +24°C° 0 mm 2 mps 754 mmHg 70%
    10:00 +25°C° 0 mm 3 mps 754 mmHg 59%
    11:00 +27°C° 0 mm 4 mps 754 mmHg 48%
    12:00 +27°C° 0 mm 4 mps 754 mmHg 45%
    13:00 +27°C° 0 mm 4 mps 753 mmHg 41%
    14:00 +27°C° 0 mm 4 mps 753 mmHg 39%
    15:00 +26°C° 0 mm 4 mps 753 mmHg 43%
    16:00 +25°C° 0 mm 3 mps 753 mmHg 48%
    17:00 +24°C° 0 mm 3 mps 753 mmHg 52%
    18:00 +21°C° 0 mm 2 mps 753 mmHg 61%
    19:00 +19°C° 0 mm 1 mps 753 mmHg 71%
    20:00 +15°C° 0 mm 0 mps 754 mmHg 81%
    21:00 +15°C° 0 mm 0 mps 754 mmHg 81%
    22:00 +14°C° 0 mm 0 mps 754 mmHg 82%
    23:00 +14°C° 0 mm 0 mps 754 mmHg 83%

    Mañana, 2 Junio, Martes

    Tiempo Temperatura Precipitaciones Viento Presión Humedad
    00:00 +15°C° 0 mm 1 mps 754 mmHg 81%
    01:00 +14°C° 0 mm 1 mps 753 mmHg 80%
    02:00 +14°C° 0 mm 1 mps 753 mmHg 78%
    03:00 +14°C° 0 mm 1 mps 753 mmHg 75%
    04:00 +14°C° 0 mm 1 mps 753 mmHg 72%
    05:00 +14°C° 0 mm 1 mps 753 mmHg 68%
    06:00 +18°C° 0 mm 1 mps 753 mmHg 59%
    07:00 +21°C° 0 mm 1 mps 753 mmHg 49%
    08:00 +24°C° 0 mm 1 mps 752 mmHg 39%
    09:00 +26°C° 0 mm 2 mps 752 mmHg 35%
    10:00 +27°C° 0 mm 3 mps 752 mmHg 32%
    11:00 +29°C° 0 mm 3 mps 752 mmHg 29%
    12:00 +29°C° 0 mm 4 mps 752 mmHg 36%
    13:00 +29°C° 0 mm 4 mps 751 mmHg 42%
    14:00 +28°C° 0 mm 5 mps 750 mmHg 49%
    15:00 +27°C° 0 mm 5 mps 750 mmHg 55%
    16:00 +26°C° 0 mm 5 mps 750 mmHg 61%
    17:00 +25°C° 0 mm 5 mps 750 mmHg 67%
    18:00 +22°C° 0 mm 4 mps 750 mmHg 73%
    19:00 +21°C° 0 mm 3 mps 750 mmHg 79%
    20:00 +19°C° 0 mm 2 mps 750 mmHg 85%
    21:00 +19°C° 0 mm 2 mps 750 mmHg 87%
    22:00 +20°C° 0 mm 2 mps 750 mmHg 88%
    23:00 +21°C° 0 mm 1 mps 750 mmHg 90%

    Pasado mañana, 3 Junio, Miércoles

    Tiempo Temperatura Precipitaciones Viento Presión Humedad
    00:00 +21°C° 0 mm 1 mps 750 mmHg 92%
    01:00 +21°C° 0 mm 1 mps 749 mmHg 93%
    02:00 +21°C° 0 mm 1 mps 749 mmHg 95%
    03:00 +21°C° 0 mm 1 mps 749 mmHg 96%
    04:00 +21°C° 0 mm 1 mps 749 mmHg 96%
    05:00 +21°C° 0 mm 1 mps 749 mmHg 96%
    06:00 +23°C° 0 mm 1 mps 749 mmHg 91%
    07:00 +24°C° 0 mm 1 mps 749 mmHg 85%
    08:00 +25°C° 0 mm 1 mps 749 mmHg 80%
    09:00 +27°C° 0 mm 1 mps 748 mmHg 69%
    10:00 +29°C° 0 mm 2 mps 748 mmHg 59%
    11:00 +30°C° 0 mm 2 mps 748 mmHg 49%
    12:00 +30°C° 0 mm 2 mps 748 mmHg 47%
    13:00 +30°C° 0 mm 3 mps 747 mmHg 46%
    14:00 +30°C° 0 mm 3 mps 747 mmHg 45%
    15:00 +29°C° 0 mm 3 mps 747 mmHg 52%
    16:00 +28°C° 0 mm 3 mps 747 mmHg 58%
    17:00 +27°C° 0 mm 2 mps 747 mmHg 64%
    18:00 +25°C° 0 mm 2 mps 747 mmHg 74%
    19:00 +23°C° 0 mm 1 mps 747 mmHg 83%
    20:00 +21°C° 0 mm 1 mps 747 mmHg 92%
    21:00 +21°C° 0 mm 1 mps 748 mmHg 93%
    22:00 +21°C° 0 mm 1 mps 748 mmHg 94%
    23:00 +20°C° 0 mm 2 mps 749 mmHg 95%

    4 Junio, Jueves

    Tiempo Temperatura Precipitaciones Viento Presión Humedad
    00:00 +20°C° 0 mm 2 mps 749 mmHg 95%
    01:00 +21°C° 0 mm 2 mps 749 mmHg 94%
    02:00 +21°C° 0 mm 3 mps 749 mmHg 94%
    03:00 +21°C° 0 mm 2 mps 749 mmHg 94%
    04:00 +21°C° 0 mm 2 mps 749 mmHg 95%
    05:00 +21°C° 0 mm 1 mps 749 mmHg 96%
    06:00 +23°C° 0 mm 2 mps 749 mmHg 90%
    07:00 +24°C° 0 mm 2 mps 749 mmHg 83%
    08:00 +26°C° 0 mm 2 mps 749 mmHg 77%
    09:00 +27°C° 0 mm 3 mps 749 mmHg 73%
    10:00 +28°C° 0 mm 4 mps 750 mmHg 69%
    11:00 +29°C° 0 mm 4 mps 750 mmHg 65%
    12:00 +29°C° 0 mm 4 mps 749 mmHg 64%
    13:00 +30°C° 0 mm 4 mps 749 mmHg 64%
    14:00 +30°C° 0 mm 4 mps 749 mmHg 64%
    15:00 +29°C° 0 mm 3 mps 749 mmHg 68%
    16:00 +28°C° 0 mm 3 mps 749 mmHg 72%
    17:00 +27°C° 0 mm 2 mps 749 mmHg 76%
    18:00 +25°C° 0 mm 2 mps 750 mmHg 82%
    19:00 +24°C° 0 mm 1 mps 750 mmHg 88%
    20:00 +22°C° 0 mm 1 mps 750 mmHg 95%
    21:00 +22°C° 0 mm 1 mps 750 mmHg 95%
    22:00 +21°C° 0 mm 1 mps 751 mmHg 95%
    23:00 +21°C° 0 mm 1 mps 751 mmHg 96%

    5 Junio, Viernes

    Tiempo Temperatura Precipitaciones Viento Presión Humedad
    00:00 +19°C° 0 mm 0 mps 751 mmHg 96%
    01:00 +19°C° 0 mm 0 mps 751 mmHg 96%
    02:00 +18°C° 0 mm 0 mps 751 mmHg 96%
    03:00 +18°C° 0 mm 0 mps 751 mmHg 96%
    04:00 +19°C° 0 mm 0 mps 751 mmHg 96%
    05:00 +21°C° 0 mm 1 mps 751 mmHg 96%
    06:00 +21°C° 0 mm 0 mps 751 mmHg 87%
    07:00 +23°C° 0 mm 0 mps 751 mmHg 78%
    08:00 +25°C° 0 mm 0 mps 751 mmHg 69%
    09:00 +29°C° 0 mm 1 mps 751 mmHg 62%
    10:00 +31°C° 0 mm 1 mps 751 mmHg 54%
    11:00 +33°C° 0 mm 1 mps 751 mmHg 47%
    12:00 +34°C° 0 mm 2 mps 751 mmHg 47%
    13:00 +34°C° 0 mm 2 mps 750 mmHg 47%
    14:00 +34°C° 0 mm 3 mps 750 mmHg 47%
    15:00 +33°C° 0 mm 3 mps 750 mmHg 53%
    16:00 +30°C° 0 mm 3 mps 750 mmHg 59%
    17:00 +29°C° 0 mm 2 mps 750 mmHg 65%
    18:00 +27°C° 0 mm 2 mps 750 mmHg 73%
    19:00 +25°C° 0 mm 1 mps 750 mmHg 81%
    20:00 +23°C° 0 mm 1 mps 751 mmHg 88%
    21:00 +22°C° 0 mm 1 mps 751 mmHg 90%
    22:00 +22°C° 0 mm 1 mps 751 mmHg 92%
    23:00 +21°C° 0 mm 1 mps 752 mmHg 94%

    6 Junio, Sábado

    Tiempo Temperatura Precipitaciones Viento Presión Humedad
    00:00 +21°C° 0.1 mm 1 mps 752 mmHg 94%
    01:00 +19°C° 0.1 mm 0 mps 752 mmHg 94%
    02:00 +19°C° 0.1 mm 0 mps 752 mmHg 94%
    03:00 +19°C° 0 mm 0 mps 751 mmHg 95%
    04:00 +19°C° 0 mm 0 mps 751 mmHg 95%
    05:00 +19°C° 0 mm 0 mps 751 mmHg 95%
    06:00 +21°C° 0 mm 0 mps 751 mmHg 86%
    07:00 +23°C° 0 mm 0 mps 751 mmHg 76%
    08:00 +25°C° 0 mm 0 mps 751 mmHg 67%
    09:00 +29°C° 0 mm 1 mps 751 mmHg 60%
    10:00 +31°C° 0 mm 2 mps 751 mmHg 52%
    11:00 +32°C° 0 mm 2 mps 751 mmHg 45%
    12:00 +34°C° 0 mm 2 mps 751 mmHg 43%
    13:00 +34°C° 0 mm 2 mps 751 mmHg 41%
    14:00 +35°C° 0 mm 3 mps 751 mmHg 38%
    15:00 +33°C° 0 mm 3 mps 751 mmHg 45%
    16:00 +31°C° 0 mm 2 mps 751 mmHg 52%
    17:00 +30°C° 0 mm 2 mps 750 mmHg 58%
    18:00 +27°C° 0 mm 2 mps 751 mmHg 68%
    19:00 +25°C° 0 mm 1 mps 752 mmHg 78%
    20:00 +22°C° 0 mm 1 mps 752 mmHg 88%
    21:00 +22°C° 0 mm 1 mps 752 mmHg 90%
    22:00 +21°C° 0 mm 1 mps 753 mmHg 92%
    23:00 +21°C° 0 mm 1 mps 753 mmHg 93%
    Mostrar más